KAL856 ZBAA-RKSI

Flight info

Callsign KAL856
Flight time N/A
Altitude 29100
Route MUGLO2G MUGLO W34 VAPGU W100 ORAVA W201 UNSEK A326 DONVO G597 AGAVO/N0493F290 Y644 REBIT REBIT1Y
Aircraft B77W/H-SDE1E2E3FGHIJ2J3J4J5M1RWXY/LB1D1

Departure

Time 2026-05-04 06:20
Airport Beijing Capital International Airport (ZBAA)

Arrival

Time N/A
Airport Incheon International Airport (RKSI)
Time Latitude Longitude Altitude Speed Heading
2026-05-04 05:57 40.07811 116.58989 125 ft 0 kts 263°
2026-05-04 06:11 40.07837 116.59129 124 ft 4 kts 204°
2026-05-04 06:11 40.07862 116.59136 124 ft 4 kts 177°
2026-05-04 06:13 40.07877 116.59135 125 ft 0 kts 173°
2026-05-04 06:14 40.07868 116.59136 124 ft 5 kts 173°
2026-05-04 06:14 40.07807 116.59147 125 ft 10 kts 167°
2026-05-04 06:15 40.07770 116.59214 126 ft 10 kts 95°
2026-05-04 06:15 40.07778 116.59302 123 ft 10 kts 80°
2026-05-04 06:15 40.07830 116.59363 125 ft 16 kts
2026-05-04 06:15 40.07943 116.59348 126 ft 16 kts 353°
2026-05-04 06:16 40.08057 116.59331 126 ft 16 kts 353°
2026-05-04 06:16 40.08169 116.59314 126 ft 16 kts 353°
2026-05-04 06:16 40.08282 116.59297 127 ft 16 kts 353°
2026-05-04 06:16 40.08394 116.59280 125 ft 16 kts 353°
2026-05-04 06:17 40.08487 116.59264 126 ft 10 kts 353°
2026-05-04 06:17 40.08564 116.59280 127 ft 12 kts 45°
2026-05-04 06:17 40.08587 116.59388 128 ft 13 kts 85°
2026-05-04 06:17 40.08595 116.59502 125 ft 13 kts 96°
2026-05-04 06:18 40.08552 116.59543 124 ft 0 kts 169°
2026-05-04 06:20 40.04532 116.60181 1463 ft 185 kts 176°
2026-05-04 06:20 40.03177 116.60383 1911 ft 209 kts 176°
2026-05-04 06:21 39.96487 116.61388 4839 ft 259 kts 176°
2026-05-04 06:21 39.94653 116.61691 5528 ft 271 kts 176°
2026-05-04 06:22 39.92740 116.61998 6270 ft 282 kts 176°
2026-05-04 06:22 39.90778 116.62308 7094 ft 286 kts 175°
2026-05-04 06:25 39.58572 116.68000 16706 ft 423 kts 168°
2026-05-04 06:25 39.55714 116.68778 17595 ft 429 kts 168°
2026-05-04 06:26 39.52863 116.69865 18269 ft 426 kts 155°
2026-05-04 06:26 39.50254 116.71713 18651 ft 435 kts 148°
2026-05-04 06:26 39.47615 116.73759 18629 ft 445 kts 148°
2026-05-04 06:26 39.44963 116.75776 18632 ft 441 kts 149°
2026-05-04 06:27 39.34318 116.83421 18634 ft 439 kts 151°
2026-05-04 06:28 39.31571 116.85140 18629 ft 439 kts 157°
2026-05-04 06:28 39.28698 116.86552 18943 ft 444 kts 160°
2026-05-04 06:28 39.25779 116.87890 19823 ft 446 kts 160°
2026-05-04 06:28 39.22867 116.89285 20721 ft 447 kts 159°
2026-05-04 06:29 39.19955 116.90740 21544 ft 452 kts 158°
2026-05-04 06:29 39.17113 116.92416 22199 ft 452 kts 146°
2026-05-04 06:29 39.14779 116.95123 22847 ft 455 kts 126°
2026-05-04 06:29 39.13174 116.98632 23529 ft 457 kts 111°
2026-05-04 06:30 39.12286 117.02575 24058 ft 459 kts 95°
2026-05-04 06:30 39.12108 117.05268 24392 ft 458 kts 91°
2026-05-04 06:30 39.11907 117.10794 25165 ft 464 kts 90°
2026-05-04 06:30 39.11764 117.14952 25814 ft 466 kts 90°
2026-05-04 06:31 39.11599 117.19145 26400 ft 471 kts 91°
2026-05-04 06:31 39.11476 117.21938 26770 ft 473 kts 91°
2026-05-04 06:31 39.11273 117.26188 27308 ft 478 kts 91°
2026-05-04 06:31 39.11056 117.30479 27824 ft 482 kts 91°
2026-05-04 06:32 39.10832 117.34793 28319 ft 486 kts 91°
2026-05-04 06:33 39.09169 117.65639 29064 ft 492 kts 91°
2026-05-04 06:34 39.08674 117.74438 29063 ft 493 kts 91°
2026-05-04 06:34 39.08176 117.83192 29059 ft 494 kts 91°
2026-05-04 06:36 39.04765 118.18240 29058 ft 496 kts 101°
2026-05-04 06:37 39.03268 118.26925 29067 ft 496 kts 99°
2026-05-04 06:37 39.01872 118.35608 29068 ft 496 kts 99°
2026-05-04 06:38 39.00496 118.44247 29074 ft 496 kts 99°
2026-05-04 06:40 38.94869 118.78975 29080 ft 496 kts 99°
2026-05-04 06:40 38.93447 118.87653 29081 ft 496 kts 99°
2026-05-04 06:41 38.92019 118.96336 29091 ft 496 kts 99°
2026-05-04 06:41 38.90584 119.05008 29081 ft 497 kts 100°
2026-05-04 06:42 38.89129 119.13693 29084 ft 497 kts 100°
2026-05-04 06:44 38.83256 119.48366 29089 ft 498 kts 100°
2026-05-04 06:44 38.81769 119.57046 29087 ft 498 kts 100°
2026-05-04 06:45 38.80275 119.65728 29093 ft 499 kts 100°
2026-05-04 06:45 38.78782 119.74365 29094 ft 499 kts 100°
2026-05-04 06:46 38.77275 119.83043 29101 ft 499 kts 100°
2026-05-04 06:46 38.75864 119.91747 29094 ft 499 kts 99°
2026-05-04 06:48 38.67803 120.20391 29110 ft 506 kts 144°
2026-05-04 06:48 38.64740 120.22622 29098 ft 508 kts 158°
2026-05-04 06:50 38.53475 120.49853 29114 ft 505 kts 99°
2026-05-04 06:51 38.52097 120.58653 29114 ft 504 kts 97°
2026-05-04 06:51 38.51085 120.67511 29108 ft 503 kts 95°
2026-05-04 06:52 38.50226 120.76369 29106 ft 502 kts 95°
2026-05-04 06:52 38.49355 120.85217 29107 ft 502 kts 95°
2026-05-04 06:53 38.48459 120.93988 29120 ft 501 kts 95°
2026-05-04 06:53 38.47548 121.02797 29110 ft 500 kts 95°
2026-05-04 06:54 38.46636 121.11586 29110 ft 499 kts 95°
2026-05-04 06:54 38.45500 121.20347 29093 ft 501 kts 99°
2026-05-04 06:55 38.44090 121.29061 29011 ft 503 kts 99°
2026-05-04 06:55 38.42640 121.37775 29007 ft 502 kts 99°
2026-05-04 06:57 38.36845 121.72599 29004 ft 503 kts 100°
2026-05-04 06:58 38.35377 121.81317 29013 ft 504 kts 100°
2026-05-04 06:58 38.33895 121.90077 29021 ft 506 kts 100°
2026-05-04 06:59 38.32406 121.98834 29020 ft 507 kts 100°
2026-05-04 06:59 38.30905 122.07622 29027 ft 507 kts 100°
2026-05-04 07:01 38.24993 122.42712 29029 ft 510 kts 111°
2026-05-04 07:02 38.21269 122.50386 29012 ft 513 kts 131°
2026-05-04 07:02 38.16176 122.56761 29030 ft 514 kts 136°
2026-05-04 07:03 38.11105 122.63189 29030 ft 516 kts 135°
2026-05-04 07:03 38.06072 122.69721 29033 ft 517 kts 134°
2026-05-04 07:04 38.01043 122.76264 29035 ft 518 kts 134°
2026-05-04 07:04 37.96033 122.82766 29033 ft 519 kts 135°
2026-05-04 07:05 37.90983 122.89301 29042 ft 518 kts 135°
2026-05-04 07:05 37.85927 122.95828 29018 ft 519 kts 136°
2026-05-04 07:06 37.78285 123.05665 29045 ft 524 kts 136°
2026-05-04 07:07 37.73194 123.12204 29045 ft 525 kts 136°
2026-05-04 07:09 37.53141 123.39068 29048 ft 526 kts 127°
2026-05-04 07:09 37.48798 123.46499 29045 ft 527 kts 127°
2026-05-04 07:10 37.44422 123.53910 29054 ft 528 kts 128°
2026-05-04 07:12 37.26742 123.83372 29057 ft 529 kts 128°
2026-05-04 07:12 37.22303 123.90734 29058 ft 529 kts 128°
2026-05-04 07:13 37.18324 123.98459 29045 ft 529 kts 112°
2026-05-04 07:13 37.17239 124.02867 29063 ft 529 kts 101°
2026-05-04 07:13 37.16789 124.07442 29066 ft 528 kts 89°
2026-05-04 07:14 37.17766 124.30097 29064 ft 520 kts 86°
2026-05-04 07:15 37.17945 124.39193 29060 ft 522 kts 86°
2026-05-04 07:15 37.18151 124.48244 29068 ft 523 kts 86°
2026-05-04 07:16 37.18358 124.57347 28802 ft 519 kts 86°
2026-05-04 07:16 37.18456 124.61848 28216 ft 513 kts 86°
2026-05-04 07:16 37.18519 124.64801 27796 ft 509 kts 86°
2026-05-04 07:17 37.18612 124.69217 27183 ft 503 kts 86°
2026-05-04 07:17 37.18703 124.73581 26588 ft 498 kts 86°
2026-05-04 07:17 37.18793 124.77904 25952 ft 494 kts 86°
2026-05-04 07:17 37.18908 124.83623 25162 ft 487 kts 86°
2026-05-04 07:18 37.18964 124.86429 24798 ft 484 kts 86°
2026-05-04 07:18 37.19049 124.90623 24292 ft 478 kts 86°
2026-05-04 07:18 37.19133 124.94768 23779 ft 472 kts 86°
2026-05-04 07:18 37.19215 124.98861 23178 ft 467 kts 86°
2026-05-04 07:19 37.19295 125.02926 22531 ft 464 kts 86°
2026-05-04 07:19 37.19372 125.06940 22083 ft 456 kts 86°
2026-05-04 07:19 37.19447 125.10881 21618 ft 449 kts 86°
2026-05-04 07:19 37.19519 125.14782 21061 ft 444 kts 86°
2026-05-04 07:20 37.19589 125.18589 20501 ft 440 kts 86°
2026-05-04 07:20 37.19658 125.22411 19976 ft 435 kts 86°
2026-05-04 07:20 37.19725 125.26185 19465 ft 431 kts 86°
2026-05-04 07:20 37.19791 125.29983 18892 ft 429 kts 86°
2026-05-04 07:22 37.18432 125.54920 15676 ft 418 kts 109°
2026-05-04 07:22 37.17397 125.58343 15294 ft 419 kts 108°
2026-05-04 07:23 37.16396 125.61766 14922 ft 416 kts 108°
2026-05-04 07:23 37.15423 125.65159 14558 ft 411 kts 108°
2026-05-04 07:23 37.14469 125.68509 14193 ft 406 kts 107°
2026-05-04 07:23 37.13526 125.71830 13838 ft 403 kts 107°
2026-05-04 07:24 37.12587 125.75125 13452 ft 400 kts 107°
2026-05-04 07:24 37.11653 125.78392 13078 ft 397 kts 107°
2026-05-04 07:24 37.10860 125.81654 12713 ft 388 kts 98°
2026-05-04 07:24 37.10495 125.84997 12387 ft 388 kts 92°
2026-05-04 07:25 37.10291 125.88360 12079 ft 384 kts 91°
2026-05-04 07:26 37.09299 126.10218 9891 ft 334 kts 85°
2026-05-04 07:27 37.09351 126.13086 9696 ft 325 kts 85°
2026-05-04 07:27 37.09388 126.15866 9609 ft 313 kts 85°
2026-05-04 07:27 37.09414 126.18540 9523 ft 302 kts 85°
2026-05-04 07:27 37.09436 126.21098 9407 ft 292 kts 85°
2026-05-04 07:28 37.09467 126.23632 9229 ft 281 kts 82°
2026-05-04 07:28 37.09968 126.25885 8758 ft 270 kts 53°
2026-05-04 07:28 37.11047 126.27769 8321 ft 266 kts 49°
2026-05-04 07:28 37.12133 126.29658 7993 ft 266 kts 50°
2026-05-04 07:29 37.13183 126.31511 7846 ft 252 kts 50°
2026-05-04 07:29 37.14189 126.33214 7564 ft 233 kts 40°
2026-05-04 07:29 37.15492 126.34190 7148 ft 211 kts
2026-05-04 07:29 37.16996 126.34218 6977 ft 222 kts 351°
2026-05-04 07:30 37.18459 126.33643 6632 ft 217 kts 328°
2026-05-04 07:30 37.19642 126.32570 6427 ft 203 kts 324°
2026-05-04 07:30 37.20767 126.31561 6237 ft 203 kts 325°
2026-05-04 07:30 37.21930 126.30521 6043 ft 207 kts 325°
2026-05-04 07:31 37.23108 126.29467 5829 ft 209 kts 325°
2026-05-04 07:31 37.24290 126.28412 5630 ft 208 kts 324°
2026-05-04 07:33 37.31909 126.35193 4119 ft 227 kts 49°
2026-05-04 07:33 37.32815 126.36795 3894 ft 222 kts 50°
2026-05-04 07:33 37.33482 126.38517 3643 ft 224 kts 79°
2026-05-04 07:33 37.33249 126.40465 3586 ft 236 kts 117°
2026-05-04 07:34 37.32129 126.42003 3517 ft 243 kts 146°
2026-05-04 07:34 37.30743 126.43201 3424 ft 246 kts 146°
2026-05-04 07:34 37.29352 126.44423 3298 ft 242 kts 146°
2026-05-04 07:34 37.27982 126.45623 3173 ft 237 kts 146°
2026-05-04 07:35 37.26636 126.46810 3088 ft 236 kts 146°
2026-05-04 07:35 37.25290 126.47995 3025 ft 237 kts 146°
2026-05-04 07:35 37.23936 126.49191 2943 ft 239 kts 144°
2026-05-04 07:35 37.22857 126.50755 2749 ft 240 kts 108°
2026-05-04 07:36 37.22786 126.52771 2651 ft 232 kts 65°
2026-05-04 07:36 37.23633 126.54418 2587 ft 223 kts 37°
2026-05-04 07:38 37.32032 126.54481 2476 ft 164 kts 324°
2026-05-04 07:38 37.32965 126.53699 2509 ft 160 kts 322°
2026-05-04 07:38 37.33856 126.52920 2490 ft 156 kts 322°
2026-05-04 07:38 37.34757 126.52122 2299 ft 161 kts 321°
2026-05-04 07:39 37.35639 126.51340 2076 ft 147 kts 320°
2026-05-04 07:39 37.36434 126.50636 1914 ft 135 kts 319°
2026-05-04 07:39 37.37184 126.49965 1741 ft 128 kts 320°
2026-05-04 07:39 37.37910 126.49319 1593 ft 130 kts 320°
2026-05-04 07:40 37.38668 126.48643 1389 ft 135 kts 319°
2026-05-04 07:40 37.39425 126.47970 1187 ft 131 kts 319°
2026-05-04 07:40 37.40164 126.47312 1018 ft 132 kts 319°
2026-05-04 07:40 37.40934 126.46625 839 ft 138 kts 319°
2026-05-04 07:41 37.41722 126.45925 649 ft 137 kts 319°
2026-05-04 07:41 37.42479 126.45253 456 ft 131 kts 319°
2026-05-04 07:41 37.43227 126.44590 293 ft 132 kts 318°
2026-05-04 07:41 37.43992 126.43918 110 ft 135 kts 318°
2026-05-04 07:42 37.44748 126.43253 40 ft 125 kts 318°
2026-05-04 07:42 37.45328 126.42697 38 ft 80 kts 324°
2026-05-04 07:42 37.45400 126.42631 38 ft 71 kts 323°